Weather Service Report


312 
ASUS44 KFWD 252015
RWRTX 
NORTH TEXAS HOURLY WEATHER ROUNDUP
NATIONAL WEATHER SERVICE FORT WORTH TX
300 PM CDT MON JUL 25 2016

NOTE: "FAIR" INDICATES FEW OR NO CLOUDS BELOW 12,000 FEET WITH NO
SIGNIFICANT WEATHER AND/OR OBSTRUCTIONS TO VISIBILITY.

TXZ118-119-252100-
DALLAS/FORT WORTH METROPLEX
  
CITY           SKY/WX    TMP DP  RH WIND       PRES   REMARKS
DFW AIRPORT    MOSUNNY   98  68  37 NE6       29.90F HX 103           
DALLAS LOVE    PTSUNNY   99  70  38 N8G18     29.89F HX 106           
FTW MEACHAM    SUNNY    101  68  34 NE9G22    29.90F HX 106           
DAL-EXECUTIVE  SUNNY    100  68  35 NE7       29.89F HX 105           
FTW-ALLIANCE   MOSUNNY   98  70  40 NE10      29.91F HX 105           
FTW-NAS-JRB    PTSUNNY  101  67  32 VRB6      29.91F HX 106           
FTW-SPINKS     PTSUNNY   99  70  39 E7        29.93F HX 105           
ARLINGTON      SUNNY     98  69  38 VRB3      29.90F HX 104           
GRAND PRAIRIE  SUNNY     97  64  34 NE6       29.91F HX  99           
ADDISON        PTSUNNY   97  68  38 VRB10     29.92F HX 101           
MESQUITE       PTSUNNY   93  72  49 E17       29.92F HX 100           
LANCASTER      MOSUNNY  100  70  37 NE8       29.90F HX 107           
$$

TXZ091>094-102>105-117-120-121-131>134-252100-
NORTH CENTRAL TEXAS
  
CITY           SKY/WX    TMP DP  RH WIND       PRES   REMARKS
SHRMAN/DENISON LGT RAIN  86  71  60 E6        29.95S HX  91           
GAINESVILLE    MOSUNNY   92  71  50 SE10      29.95F HX  98           
BOWIE          SUNNY     97  68  38 SE5       29.95F HX 102           
BRIDGEPORT     MOSUNNY   97  70  41 N3        29.95F HX 103           
DECATUR        CLOUDY    91  73  55 CALM      29.95F HX  98           
DENTON         CLOUDY    96  73  47 NE16      29.91F HX 105           
MCKINNEY       MOSUNNY   98  70  40 N10G18    29.90F HX 105           
GREENVILLE     MOSUNNY   93  66  40 SE12      29.91F HX  96           
ROCKWALL       CLOUDY    85  72  65 SE14G24   29.89F HX  90           
TERRELL        CLOUDY    86  72  62 SE6       29.93S THUNDER HX  92   
WAXAHACHIE     MOSUNNY   96  71  44 N6        29.91F HX 104           
CLEBURNE       MOSUNNY   97  70  41 NE9       29.93F HX 103           
GRANBURY       MOSUNNY  100  66  32 E5        29.92F HX 104           
$$

TXZ083>090-098>101-113>116-127>130-139>142-154-155-252100-
WESTERN NORTH TEXAS
  
CITY           SKY/WX    TMP DP  RH WIND       PRES   REMARKS
WICHITA FALLS  MOSUNNY   99  69  37 VRB7      29.93F HX 105           
WF-KICKAPOO    SUNNY    100  62  29 CALM      29.94F HX 101           
VERNON         SUNNY     99  57  24 E8        29.96F HX  97           
ABILENE        LGT RAIN  87  69  54 W10       29.98F HX  91           
ABILENE-DYESS  SUNNY     99  65  33 VRB5      29.95F HX 102           
CISCO          MOSUNNY   97  63  32 VRB3      29.98F HX  98           
BRECKENRIDGE   CLOUDY    99  62  30 NE6       29.93F HX 100           
GRAHAM         SUNNY    101  65  31 NE7       29.92F HX 105           
MINERAL WELLS  MOSUNNY   99  66  33 E8        29.91F HX 103           
STEPHENVILLE   MOSUNNY  100  62  28 CALM      29.97S HX 101           
COMANCHE       MOSUNNY   99  66  33 N8        29.95F HX 103           
BROWNWOOD      LGT RAIN  97  63  32 E3        29.94F HX  98           
COLEMAN        PTSUNNY   97  60  29 SE3       29.96F HX  97           
$$

TXZ143>147-156>162-174-175-252100-
CENTRAL TEXAS
  
CITY           SKY/WX    TMP DP  RH WIND       PRES   REMARKS
WACO           SUNNY     99  67  35 VRB3      29.88F HX 103           
WACO-TSTC      PTSUNNY  100  64  30 N7        29.88F HX 103           
WACO-MCGREGOR  SUNNY     99  69  37 E10G17    29.89F HX 105           
HILLSBORO      CLOUDY    93  72  50 N9        29.91F HX 101           
CORSICANA      SUNNY    100  73  41 N6        29.90F HX 110           
MEXIA          CLOUDY    92  71  49 SE3       29.89F HX  99           
HEARNE         MOSUNNY   88  72  59 E10       29.90F HX  95           
CAMERON        PTSUNNY   96  70  42 CALM      29.87F HX 103           
TEMPLE         MOSUNNY   99  71  40 SE13      29.89F HX 107           
KILLEEN        SUNNY     98  65  34 NE7       29.90F HX 100           
KILLEEN-SKYLRK SUNNY     99  70  38 E6        29.90F HX 106           
FORT HOOD      MOSUNNY   98  68  37 E8        29.88F HX 103           
GATESVILLE     SUNNY     97  66  36 CALM      29.92F HX 100           
HAMILTON       MOSUNNY  100  64  30 NE3       29.94F HX 103           
LAMPASAS       SUNNY     98  69  38 SE5       29.92F HX 104           
$$

TXZ095>097-106>112-122>126-135>138-148>153-164>167-252100-
EAST TEXAS
  
CITY           SKY/WX    TMP DP  RH WIND       PRES   REMARKS
PARIS          MOSUNNY   99  68  36 E7        29.92F HX 104           
SULPHUR SPRNGS PTSUNNY   95  69  42 E10       29.91F HX 100           
MOUNT PLEASANT SUNNY     95  71  44 E6        29.91F HX 102           
GILMER         MOSUNNY   94  72  48 E7        29.91F HX 101           
MINEOLA        SUNNY     97  73  46 E6        29.92F HX 107           
TYLER          TSTM      88  74  63 N5        29.91F HX  96           
LONGVIEW       PTSUNNY   81  73  76 SW3       29.91F THUNDER          
MARSHALL       MOSUNNY   90  72  55 E7        29.93F HX  97           
ATHENS         SUNNY     95  70  43 NW3       29.88F HX 101           
PALESTINE      MOSUNNY   97  72  44 NW3       29.90F HX 105           
JACKSONVILLE   CLOUDY    80  71  74 E3        29.98R                  
CENTER         PTCLDY    92  77  61 E6        29.92F HX 106           
NACOGDOCHES    CLOUDY   N/A N/A N/A NE7       29.89S                  
LUFKIN         MOSUNNY   92  74  55 NE7       29.90F HX 101           
$$

SUPPLEMENTAL OBSERVATIONS (CENTRAL)
  
CITY           SKY/WX    TMP DP  RH WIND       PRES   REMARKS
DENISON DAM      N/A     88  70  55 S8          N/A  HX  92           
PAT MAYSE LAKE   N/A     91  68  46 N15         N/A  HX  95           
GREENVILLE       N/A     99  70  39 NE12        N/A  HX 105           
CEDAR HILL       N/A     99  72  41 N5          N/A  HX 107           
ATHENS           N/A     97  72  44 E3          N/A  HX 105           
MCGREGOR         N/A    100  66  32 N5          N/A  HX 104           
TEMPLE           N/A    100  66  32 NE6         N/A  HX 104           
$$

SUPPLEMENTAL OBSERVATIONS (WEST)
  
CITY           SKY/WX    TMP DP  RH WIND       PRES   REMARKS
POSSUM KINGDOM   N/A    102  64  29 E8G16       N/A  HX 105           
GRANBURY         N/A     99  66  34 E9          N/A  HX 102           
HAMBY            N/A     97  64  34 NE5G13      N/A  HX  99           
IVIE RESERVOIR   N/A    100  63  28 CALM        N/A  HX 102           
COLORADO BEND    N/A    100  63  28 S6G15       N/A  HX 102           
$$

SUPPLEMENTAL OBSERVATIONS (EAST)
  
CITY           SKY/WX    TMP DP  RH WIND       PRES   REMARKS
CLARKSVILLE      N/A     97  72  44 NE8         N/A  HX 105           
TEXARKANA        N/A     97  72  44 NE3         N/A  HX 105           
LINDEN           N/A     93  72  49 E3          N/A  HX 100           
CADDO LAKE       N/A     93  72  49 E5          N/A  HX 100           
GILMER           N/A     97  72  44 E6          N/A  HX 105           
HENDERSON        N/A     73  70  88 SW7G28      N/A                   
LUFKIN           N/A     86  72  62 MISG        N/A  HX  92           
N SABINE NF      N/A     95  75  52 MISG        N/A  HX 107           
S SABINE NF      N/A     93  73  52 NW5         N/A  HX 102           
$$

SUPPLEMENTAL OBSERVATIONS ARE A COLLECTION OF AUTOMATED INSTRUMENTS
THAT ARE MAINTAINED BY A VARIETY OF FEDERAL AND STATE AGENCIES. 
CERTAIN ELEMENTS...SUCH AS HUMIDITY VALUES AND SUSTAINED WIND 
SPEEDS...MAY BE APPROXIMATED.

  

Return to Home page


Western Regional Climate Center, wrcc@dri.edu